Terminal Aerodrome Forecast
Issued by NWS Mt. Holly, NJ

Home | Current Version | Previous Version | Text Only | Print | Product List | Glossary On
Versions: 1 2 3 4 5 6 7 8 9 10 11 12 13 14 15 16 17 18
000
FTUS41 KPHI 061721
TAFABE
TAF
KABE 061721Z 0618/0718 05007KT P6SM OVC120
     FM062000 10010KT 6SM -RA BKN025 OVC060
     FM062200 08008KT 4SM -RA BR OVC015
     FM070000 07005KT 2SM RA BR OVC007
      TEMPO 0701/0704 1SM RASN BKN003
     FM070500 05008KT 2SM -RADZ BR OVC004
     FM070900 03004KT 4SM BR OVC008=

USA.gov is the U.S. government's official web portal to all federal, state and local government web resources and services.